sat.trackr.live / text

‹ back to catalog

2024-092G

NORAD 59779 · 2024-092G

PAYLOAD ACTIVE UNKNOWN

§ Identity

Operator
Country
CIS
Launch date
2024-05-16
Launch site
PLMSC
Launch vehicle
Mass (kg)
RCS (m²)

External: N2YO · Heavens-Above · Gunter

§ Orbital elements

Epoch: 2026-09-22T21:58:48.055008Z

Period
100.57 min
Inclination
98.6806°
Eccentricity
0.0010803
Mean motion
14.31873217 rev/d
Perigee alt
777.7 km
Apogee alt
793.2 km
Semi-major
7,163.6 km
B*
3.7462e-5
RAAN
24.9050°
Arg perigee
282.0225°
Mean anomaly
77.9748°
Rev number
12,288

§ Raw data

2024-092G1 59779U 24092G   26265.91583397  .00000055  00000+0  37462-4 0  99952 59779  98.6806  24.9050 0010803 282.0225  77.9748 14.31873217122889

JSON: /api/v1/satellites/59779 · /tle

For live sub-satellite position, see the globe view (requires WebGL).

§ Visibility from observer

Set your observer location to see the next 7 days of passes ≥ 10°. The values pass through the URL so the page stays shareable.

No JS? Fill the form by hand. The geolocation button needs JavaScript.